Weather History for KPRG - December, 2012

Change the Weather History Date:

Monday, December 10, 2012

  Actual Average (KHUF) Record (KHUF)
Temperature  
Mean Temperature 34 °F 33 °F  
Max Temperature 40 °F 41 °F 65 °F (1971)
Min Temperature 29 °F 25 °F -5 °F (1977)
Degree Days  
Heating Degree Days 30 32  
Month to date heating degree days 303  
Since 1 July heating degree days 1381  
Cooling Degree Days 0 0  
Month to date cooling degree days 0  
Year to date cooling degree days 993  
Moisture  
Dew Point 28 °F    
Average Humidity 88    
Maximum Humidity 93    
Minimum Humidity 85    
Precipitation  
Precipitation 0.09 in 0.08 in 1.03 in (1966)
Month to date precipitation 0.88  
Year to date precipitation 42.99  
Sea Level Pressure  
Sea Level Pressure 29.88 in    
Wind  
Wind Speed 12 mph (WNW)    
Max Wind Speed 20 mph    
Max Gust Speed 25 mph    
Visibility 10 miles    
Events      
T = Trace of Precipitation, MM = Missing Value Source: NWS Daily Summary

Daily Weather History Graph

Daily Weather History Graph

Search for Another Location

Airport or City:

Trip Planner

Search our weather history database for the weather conditions in past years. The results will help you decide how hot, cold, wet, or windy it might be!

Date:

Astronomy

Dec. 10, 2012 Rise Set
Actual Time 7:01 AM CST 4:26 PM CST
Civil Twilight 6:30 AM CST 4:56 PM CST
Nautical Twilight 5:57 AM CST 5:30 PM CST
Astronomical Twilight 5:24 AM CST 6:03 PM CST
Moon 3:44 AM CST (12/10) 2:15 PM CST (12/10)
Length of Visible Light 10h 25m
Length of Day
9h 25m
Waning Crescent, 10% of the Moon is Illuminated
Dec 10
Waning Crescent
Dec 13
New
Dec 19
First Quarter
Dec 28
Full
Jan 4
Last Quarter

Hourly Weather History & Observations

Time (CST) Temp. Windchill Dew Point Humidity Pressure Visibility Wind Dir Wind Speed Gust Speed Precip Events Conditions
12:15 AM 40.5 °F 36.5 °F 37.8 °F 90% 29.81 in 10.0 mi WNW 5.8 mph - N/A   Overcast
12:35 AM 40.3 °F 34.4 °F 36.7 °F 87% 29.81 in 10.0 mi WNW 9.2 mph - N/A   Overcast
12:55 AM 40.3 °F 34.4 °F 36.3 °F 86% 29.80 in 10.0 mi WNW 9.2 mph - N/A   Overcast
1:15 AM 40.1 °F 33.2 °F 36.1 °F 86% 29.80 in 10.0 mi WNW 11.5 mph - N/A   Overcast
1:35 AM 39.6 °F 34.7 °F 36.3 °F 88% 29.81 in 10.0 mi West 6.9 mph - N/A   Scattered Clouds
1:55 AM 39.2 °F 34.2 °F 36.1 °F 89% 29.81 in 10.0 mi West 6.9 mph - N/A   Clear
2:15 AM 39.2 °F 34.2 °F 36.1 °F 89% 29.81 in 10.0 mi West 6.9 mph - N/A   Mostly Cloudy
2:35 AM 39.2 °F 33.6 °F 37.4 °F 93% 29.80 in 10.0 mi West 8.1 mph - N/A   Mostly Cloudy
2:55 AM 39.2 °F 32.5 °F 36.5 °F 90% 29.80 in 10.0 mi WNW 10.4 mph - N/A   Overcast
3:15 AM 38.7 °F 30.1 °F 35.6 °F 89% 29.80 in 10.0 mi WNW 15.0 mph - N/A   Overcast
3:35 AM 36.7 °F 27.2 °F 33.3 °F 87% 29.79 in 10.0 mi West 16.1 mph 21.9 mph N/A   Overcast
3:55 AM 35.6 °F 26.6 °F 32.4 °F 88% 29.80 in 10.0 mi WNW 13.8 mph - N/A   Overcast
4:15 AM 34.0 °F 22.7 °F 31.1 °F 89% 29.79 in 10.0 mi WNW 19.6 mph 24.2 mph N/A   Overcast
4:35 AM 32.4 °F 22.1 °F 29.7 °F 90% 29.79 in 10.0 mi WNW 15.0 mph 24.2 mph N/A   Overcast
4:55 AM 32.0 °F 21.2 °F 29.3 °F 90% 29.79 in 10.0 mi WNW 16.1 mph 24.2 mph N/A   Overcast
5:15 AM 32.0 °F 21.6 °F 29.1 °F 89% 29.80 in 10.0 mi WNW 15.0 mph 21.9 mph N/A   Overcast
5:35 AM 32.0 °F 21.6 °F 28.8 °F 88% 29.81 in 10.0 mi WNW 15.0 mph 24.2 mph N/A   Overcast
5:55 AM 32.0 °F 22.1 °F 28.4 °F 87% 29.82 in 10.0 mi NW 13.8 mph 19.6 mph N/A   Overcast
6:15 AM 31.1 °F 20.1 °F 27.9 °F 88% 29.83 in 10.0 mi WNW 16.1 mph 20.7 mph N/A   Overcast
6:35 AM 30.9 °F 19.8 °F 27.5 °F 87% 29.83 in 10.0 mi West 16.1 mph - N/A   Overcast
6:55 AM 30.2 °F 21.3 °F 26.6 °F 86% 29.82 in 10.0 mi WNW 10.4 mph - N/A   Overcast
7:15 AM 30.7 °F 21.4 °F 27.3 °F 87% 29.82 in 10.0 mi West 11.5 mph - N/A   Overcast
7:35 AM 30.7 °F 19.6 °F 27.5 °F 88% 29.84 in 10.0 mi West 16.1 mph - N/A   Overcast
7:55 AM 30.2 °F 19.8 °F 27.3 °F 89% 29.86 in 10.0 mi West 13.8 mph 20.7 mph N/A   Overcast
8:15 AM 30.0 °F 19.5 °F 27.0 °F 88% 29.86 in 10.0 mi West 13.8 mph - N/A   Overcast
8:35 AM 30.0 °F 18.7 °F 26.8 °F 88% 29.86 in 10.0 mi WNW 16.1 mph - N/A   Overcast
8:55 AM 30.0 °F 20.0 °F 26.6 °F 87% 29.87 in 10.0 mi WNW 12.7 mph 18.4 mph N/A   Overcast
9:15 AM 30.2 °F 20.8 °F 26.4 °F 86% 29.87 in 10.0 mi WNW 11.5 mph - N/A   Overcast
9:35 AM 30.0 °F 18.7 °F 26.4 °F 86% 29.87 in 10.0 mi WNW 16.1 mph 23.0 mph N/A   Overcast
9:55 AM 29.7 °F 18.2 °F 26.4 °F 88% 29.87 in 10.0 mi WNW 16.1 mph 19.6 mph N/A   Overcast
10:15 AM 29.7 °F 19.1 °F 26.4 °F 88% 29.87 in 10.0 mi WNW 13.8 mph 20.7 mph N/A   Overcast
10:35 AM 29.5 °F 17.6 °F 26.2 °F 88% 29.87 in 10.0 mi WNW 17.3 mph 25.3 mph N/A   Overcast
10:55 AM 29.5 °F 17.2 °F 26.4 °F 88% 29.86 in 10.0 mi WNW 18.4 mph 24.2 mph N/A   Overcast
11:15 AM 29.5 °F 18.0 °F 26.6 °F 89% 29.86 in 10.0 mi WNW 16.1 mph 23.0 mph N/A   Overcast
11:35 AM 29.3 °F 18.2 °F 26.2 °F 88% 29.86 in 7.0 mi WNW 15.0 mph 23.0 mph N/A   Overcast
11:55 AM 29.3 °F 17.3 °F 26.2 °F 88% 29.86 in 10.0 mi West 17.3 mph 21.9 mph N/A   Overcast
12:15 PM 29.3 °F 18.6 °F 26.6 °F 90% 29.86 in 7.0 mi WNW 13.8 mph - N/A   Overcast
12:35 PM 29.3 °F 17.7 °F 26.6 °F 90% 29.85 in 7.0 mi WNW 16.1 mph 20.7 mph N/A   Overcast
12:55 PM 29.3 °F 18.2 °F 26.6 °F 90% 29.84 in 10.0 mi WNW 15.0 mph 19.6 mph N/A   Overcast
1:15 PM 29.7 °F 19.6 °F 26.6 °F 88% 29.84 in 7.0 mi West 12.7 mph 20.7 mph N/A   Overcast
1:35 PM 29.3 °F 18.2 °F 26.6 °F 90% 29.84 in 7.0 mi WNW 15.0 mph 20.7 mph N/A   Overcast
1:55 PM 29.5 °F 18.8 °F 26.8 °F 90% 29.85 in 7.0 mi WNW 13.8 mph 18.4 mph N/A   Overcast
2:15 PM 29.7 °F 20.7 °F 27.0 °F 90% 29.86 in 7.0 mi WNW 10.4 mph - N/A   Overcast
2:35 PM 29.8 °F 18.9 °F 27.1 °F 90% 29.86 in 7.0 mi WNW 15.0 mph - N/A   Overcast
2:55 PM 29.8 °F 19.8 °F 26.8 °F 88% 29.86 in 10.0 mi WNW 12.7 mph - N/A   Overcast
3:15 PM 30.0 °F 20.0 °F 27.3 °F 90% 29.87 in 7.0 mi WNW 12.7 mph - N/A   Overcast
3:35 PM 30.2 °F 19.8 °F 27.3 °F 89% 29.87 in 7.0 mi WNW 13.8 mph - N/A   Overcast
3:55 PM 30.2 °F 19.8 °F 27.3 °F 89% 29.88 in 10.0 mi West 13.8 mph - N/A   Overcast
4:15 PM 30.2 °F 19.8 °F 27.1 °F 88% 29.90 in 10.0 mi WNW 13.8 mph - N/A   Overcast
4:35 PM 30.2 °F 19.3 °F 27.1 °F 88% 29.90 in 10.0 mi WNW 15.0 mph - N/A   Overcast
4:55 PM 30.2 °F 19.8 °F 27.0 °F 88% 29.91 in 10.0 mi WNW 13.8 mph 19.6 mph N/A   Overcast
5:15 PM 30.2 °F 18.9 °F 26.8 °F 87% 29.91 in 10.0 mi WNW 16.1 mph 20.7 mph N/A   Overcast
5:35 PM 30.0 °F 19.5 °F 26.6 °F 87% 29.92 in 10.0 mi WNW 13.8 mph - N/A   Overcast
5:55 PM 30.0 °F 20.0 °F 26.6 °F 87% 29.92 in 10.0 mi WNW 12.7 mph 18.4 mph N/A   Overcast
6:15 PM 29.8 °F 20.3 °F 26.4 °F 87% 29.94 in 10.0 mi WNW 11.5 mph - N/A   Overcast
6:35 PM 29.8 °F 19.8 °F 26.4 °F 87% 29.96 in 10.0 mi West 12.7 mph - N/A   Overcast
6:55 PM 29.7 °F 19.6 °F 26.2 °F 87% 29.96 in 10.0 mi WNW 12.7 mph 19.6 mph N/A   Overcast
7:15 PM 29.7 °F 19.6 °F 26.4 °F 88% 29.96 in 10.0 mi WNW 12.7 mph - N/A   Overcast
7:35 PM 29.7 °F 20.1 °F 26.2 °F 87% 29.97 in 10.0 mi WNW 11.5 mph - N/A   Overcast
7:55 PM 29.5 °F 19.9 °F 26.1 °F 87% 29.97 in 10.0 mi WNW 11.5 mph - N/A   Overcast
8:15 PM 29.5 °F 20.4 °F 25.7 °F 86% 29.98 in 10.0 mi WNW 10.4 mph - N/A   Overcast
8:35 PM 29.7 °F 18.2 °F 26.1 °F 86% 29.99 in 10.0 mi West 16.1 mph - N/A   Overcast
8:55 PM 29.5 °F 19.3 °F 26.1 °F 87% 29.99 in 10.0 mi West 12.7 mph - N/A   Overcast
9:15 PM 29.7 °F 19.1 °F 26.1 °F 86% 30.00 in 10.0 mi West 13.8 mph - N/A   Overcast
9:35 PM 29.7 °F 20.7 °F 25.7 °F 85% 30.00 in 10.0 mi WNW 10.4 mph - N/A   Overcast
9:55 PM 29.5 °F 20.4 °F 25.9 °F 86% 29.99 in 10.0 mi West 10.4 mph - N/A   Overcast
10:15 PM 29.5 °F 21.1 °F 25.7 °F 86% 29.99 in 10.0 mi WNW 9.2 mph 18.4 mph N/A   Overcast
10:35 PM 29.7 °F 21.3 °F 26.2 °F 87% 30.00 in 10.0 mi West 9.2 mph - N/A   Overcast
10:55 PM 29.3 °F 20.8 °F 26.2 °F 88% 30.00 in 10.0 mi WNW 9.2 mph - N/A   Overcast
11:15 PM 29.7 °F 22.0 °F 26.4 °F 88% 30.00 in 10.0 mi WNW 8.1 mph - N/A   Overcast
11:35 PM 29.3 °F 21.5 °F 26.1 °F 88% 30.01 in 10.0 mi WNW 8.1 mph - N/A   Overcast
11:55 PM 29.3 °F 20.2 °F 26.2 °F 88% 30.01 in 10.0 mi West 10.4 mph - N/A   Overcast